SCP
0 0 0 0 0 0 0 0 0 0 0 0 0 0 0 0 0 0 0 0 0 0 0 0 0 0 0 0 0 0 0 0 0 0 0 0 0 0 0 0 0 0 0 0
0 0 0 0 0 0 0 0 0 0 0 0 0 0 0 0 0 0 0 0 0 0 0 0 0 0 0 0 0 0 0 0 0 0 0 0 0 0 0 0 0 0 0 0
0 0 0 0 0 0 0 0 0 0 0 0 0 0 0 0 0 0 0 0 0 0 0 0 0 0 0 0 0 0 0 0 0 0 0 0 0 0 0 0 0 0 0 0
0 0 0 0 0 0 0 0 0 0 0 0 0 0 0 0 0 0 0 0 0 0 0 0 0 0 0 0 0 0 0 0 0 0 0 0 0 0 0 0 0 0 0 0
0 0 0 0 0 0 0 0 0 0 0 0 0 0 0 0 0 0 0 0 0 0 0 0 0 0 0 0 0 0 0 0 0 0 0 0 0 0 0 0 0 0 0 0
0 0 0 0 0 0 0 0 0 0 0 0 0 0 0 0 0 0 0 0 0 0 0 0 0 0 0 0 0 0 0 0 0 0 0 0 0 0 0 0 0 0 0 0
0 0 0 0 0 0 0 0 0 0 0 0 0 0 0 0 0 0 0 0 0 0 0 0 0 0 0 0 0 0 0 0 0 0 0 0 0 0 0 0 0 0 0 0
0 0 0 0 0 0 0 0 0 0 0 0 0 0 0 0 0 0 0 0 0 0 0 0 0 0 0 0 0 0 0 0 0 0 0 0 0 0 0 0 0 0 0 0
0 0 0 0 0 0 0 0 0 0 0 0 0 0 0 0 0 0 0 0 0 0 0 0 0 0 0 0 0 0 0 0 0 0 0 0 0 0 0 0 0 0 0 0
0 0 0 0 0 0 0 0 0 0 0 0 0 0 0 0 0 0 0 0 0 0 0 0 0 0 0 0 0 0 0 0 0 0 0 0 0 0 0 0 0 0 0 0
0 0 0 0 0 0 0 0 0 0 0 0 0 0 0 0 0 0 0 0 0 0 0 0 0 0 0 0 0 0 0 0 0 0 0 0 0 0 0 0 0 0 0 0
0 0 0 0 0 0 0 0 0 0 0 0 0 0 0 0 0 0 0 0 0 0 0 0 0 0 0 0 0 0 0 0 0 0 0 0 0 0 0 0 0 0 0 0
0 0 0 0 0 0 0 0 0 0 0 0 0 0 0 0 0 0 0 0 0 0 0 0 0 0 0 0 0 0 0 0 0 0 0 0 0 0 0 0 0 0 0 0
0 0 0 0 0 0 0 0 0 0 0 0 0 0 0 0 0 0 0 0 0 0 0 0 0 0 0 0 0 0 0 0 0 0 0 0 0 0 0 0 0 0 0 0
0 0 0 0 0 0 0 0 0 0 0 0 0 0 0 0 0 0 0 0 0 0 0 0 0 0 0 0 0 0 0 0 0 0 0 0 0 0 0 0 0 0 0 0
0 0 0 0 0 0 0 0 0 0 0 0 0 0 0 0 0 0 0 0 0 0 0 0 0 0 0 0 0 0 0 0 0 0 0 0 0 0 0 0 0 0 0 0
0 0 0 0 0 0 0 0 0 0 0 0 0 0 0 0 0 0 0 0 0 0 0 0 0 0 0 0 0 0 0 0 0 0 0 0 0 0 0 0 0 0 0 0
0 0 0 0 0 0 0 0 0 0 0 0 0 0 0 0 0 0 0 0 0 0 0 0 0 0 0 0 0 0 0 0 0 0 0 0 0 0 0 0 0 0 0 0
0 0 0 0 0 0 0 0 0 0 0 0 0 0 0 0 0 0 0 0 0 0 0 0 0 0 0 0 0 0 0 0 0 0 0 0 0 0 0 0 0 0 0 0
0 0 0 0 0 0 0 0 0 0 0 0 0 0 0 0 0 0 0 0 0 0 0 0 0 0 0 0 0 0 0 0 0 0 0 0 0 0 0 0 0 0 0 0
0 0 0 0 0 0 0 0 0 0 0 0 0 0 0 0 0 0 0 0 0 0 0 0 0 0 0 0 0 0 0 0 0 0 0 0 0 0 0 0 0 0 0 0
0 0 0 0 0 0 0 0 0 0 0 0 0 0 0 0 0 0 0 0 0 0 0 0 0 0 0 0 0 0 0 0 0 0 0 0 0 0 0 0 0 0 0 0
0 0 0 0 0 0 0 0 0 0 0 0 0 0 0 0 0 0 0 0 0 0 0 0 0 0 0 0 0 0 0 0 0 0 0 0 0 -0 -0 0 0 0 0 0
0 0 0 0 0 0 0 0 0 0 0 0 0 0 0 0 0 0 0 0 0 0 0 0 0 0 0 0 0 0 0 0 0 0 0 -0 -0 -0 0 0 0 0 0 0
0 0 0 0 0 0 0 0 0 0 0 0 0 0 0 0 0 0 0 0 0 0 0 0 0 0 0 0 0 0 -0 -0 -0 -0 -0 -0 0 0 0 0 0 0 0 0
0 0 0 0 0 0 0 0 0 0 0 0 0 0 0 0 0 0 0 0 0 0 0 0 0 0 0 0 0 0 0 -0 -0 0 0 0 0 0 0 0 0 0 0 0
0 0 0 0 0 0 0 0 0 0 0 0 0 0 0 0 0 0 0 0 0 0 0 0 0 -0 -0 -0 -0 -0 -0 0 0 0 0 0 0 0 0 0 0 0 0 -0
Wind_Speed_500mb
26 28 30 34 37 36 26 9 3 1 21 6 5 4 8 6 9 6 2 6 6 5 2 6 5 3 7 16 3 7 3 9 2 1 12 7 4 6 7 9 5 3 6 11
25 25 26 29 33 37 34 19 5 7 22 5 2 7 7 5 7 7 4 4 2 2 5 6 4 6 9 22 9 7 8 4 5 13 11 4 10 3 9 8 5 8 9 10
26 24 22 24 25 29 25 10 5 5 7 9 8 2 5 9 9 1 5 5 5 6 6 12 6 5 12 9 10 15 6 6 12 13 11 7 4 4 4 9 5 6 11 11
27 24 20 19 20 21 16 10 2 2 2 7 5 4 6 6 11 13 15 8 7 7 7 5 4 4 6 11 13 9 8 6 4 6 8 6 7 10 10 12 12 11 15 16
30 26 19 16 16 14 7 5 3 3 4 7 2 6 2 4 11 10 8 9 1 6 9 9 14 7 2 2 10 6 6 2 2 6 4 10 7 14 14 14 13 15 16 21
34 27 20 15 12 9 3 2 3 2 7 4 4 2 3 2 3 1 7 7 6 6 8 12 12 7 7 3 5 4 4 9 6 9 3 5 9 18 19 10 8 10 13 16
37 30 24 17 12 6 5 4 4 3 3 2 3 3 4 6 11 2 5 7 4 6 11 9 7 3 5 10 14 12 10 10 6 7 3 9 12 7 7 13 8 10 10 13
38 33 27 20 14 10 7 6 4 4 3 3 3 2 5 10 6 5 2 7 5 11 4 7 8 8 7 6 2 7 5 9 5 7 9 11 10 10 10 13 13 9 9 5
40 35 29 24 19 13 11 8 5 4 9 8 2 1 2 1 4 8 3 6 5 2 9 7 8 8 8 6 2 13 10 8 7 5 7 12 10 6 21 4 9 14 21 19
40 36 31 27 22 17 14 10 8 5 3 7 7 4 4 3 4 2 5 4 3 3 5 5 7 9 6 7 7 9 4 4 11 6 10 13 8 23 11 5 11 11 27 37
40 37 32 28 24 18 16 14 13 9 5 7 10 9 9 5 3 6 1 5 3 6 4 7 8 7 10 3 7 8 11 11 8 4 4 14 11 5 3 6 4 6 12 22
41 37 33 30 26 19 14 14 13 12 11 8 8 13 25 25 21 4 6 3 4 7 7 2 4 3 1 6 6 1 5 11 7 14 10 8 5 1 7 8 4 2 5 11
40 37 34 30 25 19 15 13 14 13 12 18 22 14 14 28 35 28 9 7 7 6 4 9 3 5 7 7 10 5 4 3 4 1 5 8 10 13 10 5 3 5 11 13
38 37 34 30 24 14 9 12 13 16 4 4 5 9 4 11 18 35 38 13 7 6 6 4 4 4 10 7 5 7 8 5 6 6 10 10 18 12 9 8 12 19 24 27
35 34 35 28 15 6 6 13 19 20 12 3 13 19 12 14 16 22 41 27 19 11 4 4 6 7 4 3 2 5 14 12 10 22 17 22 25 31 27 29 48 48 44 40
52 45 40 25 18 20 13 10 22 19 12 3 5 7 3 9 9 18 33 26 18 9 8 7 6 10 8 5 6 16 39 47 46 37 49 36 29 32 42 57 47 41 41 40
49 42 32 30 27 25 12 6 11 25 18 5 8 11 2 3 15 26 25 25 12 10 9 10 8 8 11 5 7 18 26 35 40 38 37 39 49 57 44 52 54 54 55 54
45 35 31 24 24 28 14 12 14 25 13 3 1 7 6 2 6 10 16 13 14 12 8 8 9 6 7 7 32 45 51 47 47 41 45 56 54 54 57 51 51 54 53 51
43 37 29 28 24 15 17 16 15 18 6 5 3 2 3 7 3 5 7 7 1 4 6 9 12 3 9 18 31 34 33 36 40 50 55 58 60 62 58 51 42 39 46 51
47 52 14 11 19 27 18 3 4 7 7 4 5 4 5 5 4 3 4 2 3 3 8 7 5 7 51 62 57 56 53 50 31 29 27 20 24 27 31 36 39 42 50 53
42 12 8 39 40 15 5 5 3 2 1 7 6 11 4 1 3 3 2 3 1 2 7 5 4 7 21 44 45 38 25 18 19 24 30 34 35 41 45 55 60 59 60 59
20 32 47 34 8 5 5 2 3 4 6 8 8 5 8 3 3 3 2 1 2 9 1 1 6 9 19 19 20 15 19 23 26 26 36 44 46 56 66 73 75 72 73 73
54 20 10 8 4 8 8 10 3 3 9 14 12 4 5 5 3 6 4 2 9 8 2 7 10 16 23 20 22 24 26 32 38 50 53 61 71 78 82 83 82 82 81 80
6 8 7 6 5 6 7 6 7 6 7 17 9 8 3 4 4 3 3 6 2 5 7 11 8 29 25 21 25 33 40 47 57 63 73 83 84 89 80 78 73 69 72 68
6 7 6 6 4 4 3 9 2 4 9 11 9 5 4 3 4 4 2 5 8 9 10 8 20 14 17 27 39 49 60 70 77 80 82 81 83 81 79 73 69 64 64 65
5 5 7 6 7 4 2 2 3 9 13 12 6 6 5 4 5 4 11 6 12 9 7 18 23 39 51 62 74 85 93 87 82 81 78 74 67 68 67 66 67 68 65 58
5 5 4 1 2 1 5 3 3 10 10 5 7 6 13 5 5 7 8 10 9 27 42 54 63 75 86 90 89 83 76 71 68 65 71 69 65 68 68 71 61 52 52 49
Wind_Direction_500mb
288 302 317 328 336 345 343 343 59 308 179 80 50 157 206 288 292 321 297 88 96 130 102 76 98 126 14 350 26 65 34 128 103 237 294 238 66 111 109 113 244 105 152 275
277 293 311 324 336 350 355 343 309 44 179 136 267 282 281 273 327 325 19 116 113 95 107 105 77 77 22 26 57 134 181 38 40 354 356 7 71 52 114 107 84 204 140 261
264 278 297 315 332 346 354 354 14 32 111 89 132 72 334 312 313 157 46 113 87 91 77 20 123 66 10 30 71 56 85 114 158 191 207 154 211 211 110 119 123 217 218 270
249 265 283 303 321 338 352 8 59 54 328 20 44 48 8 343 354 1 31 47 47 139 110 56 86 58 16 38 15 41 83 196 191 260 225 194 214 226 197 193 211 184 251 205
245 251 262 284 306 330 341 5 52 57 47 344 350 357 43 61 326 16 339 114 81 41 142 177 193 139 170 225 12 66 17 228 108 303 258 231 255 268 254 225 243 242 259 273
239 242 247 257 278 315 284 152 84 24 3 13 94 297 339 65 335 85 17 143 98 84 168 119 106 105 127 119 142 124 99 132 108 248 356 330 295 231 228 219 191 192 231 240
233 234 234 235 241 251 229 181 180 150 256 82 142 11 340 348 333 255 46 43 64 105 135 120 104 114 274 267 250 181 145 130 138 214 17 248 248 297 204 207 215 222 266 266
227 228 227 224 223 222 208 179 172 145 144 185 283 308 306 320 355 34 47 48 93 139 131 57 32 348 9 273 129 238 180 130 176 179 204 295 311 262 193 185 248 211 236 177
220 221 221 216 213 213 209 197 151 148 125 237 209 240 326 237 346 358 67 78 116 105 75 74 156 217 224 288 336 56 82 94 128 133 210 236 242 311 5 105 277 209 191 169
216 215 215 213 210 211 210 209 203 182 203 202 179 191 187 154 117 157 314 337 131 117 96 119 165 226 207 226 205 192 81 51 187 175 239 285 251 303 318 163 248 170 177 171
214 211 209 208 206 209 211 214 219 219 225 232 225 216 211 185 188 145 199 53 310 58 112 154 204 181 223 197 233 192 185 167 209 114 215 275 344 3 210 239 40 210 190 205
210 208 205 203 202 203 208 215 217 233 241 253 244 250 242 253 258 288 220 208 187 176 98 189 107 178 68 163 234 38 237 192 193 178 218 271 325 253 118 62 141 171 221 225
204 203 200 198 198 201 207 218 224 236 267 279 271 262 243 245 236 223 230 222 211 187 156 146 145 229 135 185 234 211 251 180 213 34 219 196 145 127 130 113 11 284 236 233
195 195 194 188 185 189 217 236 236 223 229 275 265 205 187 261 240 226 217 223 207 169 160 138 138 197 191 223 256 188 201 156 208 258 274 248 208 204 210 254 296 304 303 286
181 189 185 184 193 229 238 220 220 211 212 219 296 305 278 242 249 234 209 215 221 194 154 117 221 224 192 206 87 239 205 199 221 259 242 268 275 273 249 291 303 299 287 274
209 193 193 207 258 262 208 194 211 199 200 297 319 301 315 237 224 198 191 204 201 183 171 196 237 240 216 197 222 252 244 249 258 271 285 285 276 268 280 293 295 295 288 280
183 192 213 227 208 181 171 189 185 174 156 209 300 311 235 315 183 187 187 196 199 197 186 202 226 235 203 159 217 246 259 269 276 278 282 279 282 289 302 300 298 300 297 288
178 190 184 173 163 154 139 148 141 162 168 193 176 276 336 33 177 164 186 188 193 209 209 192 206 206 215 245 239 250 257 261 264 271 281 285 288 285 286 287 286 289 287 284
169 157 139 111 142 149 142 121 151 175 157 166 158 201 228 5 86 134 151 180 141 219 210 233 164 204 226 229 233 239 255 257 276 290 288 287 286 288 288 286 281 278 278 280
152 124 106 128 146 134 127 130 159 163 191 213 208 216 267 354 53 90 139 147 199 223 241 171 185 248 253 260 265 274 279 287 290 277 297 310 302 304 301 295 292 284 282 283
122 131 114 133 131 121 143 120 132 160 303 215 225 218 238 220 100 187 66 172 198 303 269 184 246 266 256 285 272 272 273 253 260 278 286 299 299 301 300 299 296 290 286 278
133 123 126 124 146 120 117 132 131 187 219 202 190 225 212 168 177 129 24 179 49 250 60 182 266 253 282 284 264 246 249 260 268 282 295 296 292 299 298 295 291 289 290 288
123 118 124 148 133 71 186 172 222 217 200 187 183 164 163 152 189 82 98 220 237 324 209 234 236 269 281 250 245 260 274 280 288 294 293 297 296 296 296 292 287 286 282 279
104 124 98 150 178 224 193 179 186 180 174 169 151 129 163 144 96 116 217 244 10 262 236 236 246 266 266 246 266 277 283 285 288 290 295 298 297 297 295 290 295 293 284 281
100 111 122 174 177 175 123 229 233 128 156 145 124 103 178 51 105 202 325 264 246 226 230 234 265 270 270 280 289 293 295 297 298 299 298 295 295 295 295 297 295 294 290 287
77 83 98 126 97 74 131 306 280 158 153 145 120 100 61 260 186 158 223 228 227 239 222 267 295 296 300 302 305 307 307 302 297 297 298 299 299 298 299 297 293 287 286 283
62 63 85 165 103 137 33 307 346 188 182 156 132 169 215 128 228 227 210 221 233 267 283 292 298 304 306 308 309 308 306 303 301 301 302 302 304 302 296 292 303 302 297 292
Wind_Speed_850mb
26 28 30 34 37 36 26 9 3 1 21 6 5 4 8 6 9 6 2 6 6 5 2 6 5 3 7 16 3 7 3 9 2 1 12 7 4 6 7 9 5 3 6 11
25 25 26 29 33 37 34 19 5 7 22 5 2 7 7 5 7 7 4 4 2 2 5 6 4 6 9 22 9 7 8 4 5 13 11 4 10 3 9 8 5 8 9 10
26 24 22 24 25 29 25 10 5 5 7 9 8 2 5 9 9 1 5 5 5 6 6 12 6 5 12 9 10 15 6 6 12 13 11 7 4 4 4 9 5 6 11 11
27 24 20 19 20 21 16 10 2 2 2 7 5 4 6 6 11 13 15 8 7 7 7 5 4 4 6 11 13 9 8 6 4 6 8 6 7 10 10 12 12 11 15 16
30 26 19 16 16 14 7 5 3 3 4 7 2 6 2 4 11 10 8 9 1 6 9 9 14 7 2 2 10 6 6 2 2 6 4 10 7 14 14 14 13 15 16 21
34 27 20 15 12 9 3 2 3 2 7 4 4 2 3 2 3 1 7 7 6 6 8 12 12 7 7 3 5 4 4 9 6 9 3 5 9 18 19 10 8 10 13 16
37 30 24 17 12 6 5 4 4 3 3 2 3 3 4 6 11 2 5 7 4 6 11 9 7 3 5 10 14 12 10 10 6 7 3 9 12 7 7 13 8 10 10 13
38 33 27 20 14 10 7 6 4 4 3 3 3 2 5 10 6 5 2 7 5 11 4 7 8 8 7 6 2 7 5 9 5 7 9 11 10 10 10 13 13 9 9 5
40 35 29 24 19 13 11 8 5 4 9 8 2 1 2 1 4 8 3 6 5 2 9 7 8 8 8 6 2 13 10 8 7 5 7 12 10 6 21 4 9 14 21 19
40 36 31 27 22 17 14 10 8 5 3 7 7 4 4 3 4 2 5 4 3 3 5 5 7 9 6 7 7 9 4 4 11 6 10 13 8 23 11 5 11 11 27 37
40 37 32 28 24 18 16 14 13 9 5 7 10 9 9 5 3 6 1 5 3 6 4 7 8 7 10 3 7 8 11 11 8 4 4 14 11 5 3 6 4 6 12 22
41 37 33 30 26 19 14 14 13 12 11 8 8 13 25 25 21 4 6 3 4 7 7 2 4 3 1 6 6 1 5 11 7 14 10 8 5 1 7 8 4 2 5 11
40 37 34 30 25 19 15 13 14 13 12 18 22 14 14 28 35 28 9 7 7 6 4 9 3 5 7 7 10 5 4 3 4 1 5 8 10 13 10 5 3 5 11 13
38 37 34 30 24 14 9 12 13 16 4 4 5 9 4 11 18 35 38 13 7 6 6 4 4 4 10 7 5 7 8 5 6 6 10 10 18 12 9 8 12 19 24 27
35 34 35 28 15 6 6 13 19 20 12 3 13 19 12 14 16 22 41 27 19 11 4 4 6 7 4 3 2 5 14 12 10 22 17 22 25 31 27 29 48 48 44 40
52 45 40 25 18 20 13 10 22 19 12 3 5 7 3 9 9 18 33 26 18 9 8 7 6 10 8 5 6 16 39 47 46 37 49 36 29 32 42 57 47 41 41 40
49 42 32 30 27 25 12 6 11 25 18 5 8 11 2 3 15 26 25 25 12 10 9 10 8 8 11 5 7 18 26 35 40 38 37 39 49 57 44 52 54 54 55 54
45 35 31 24 24 28 14 12 14 25 13 3 1 7 6 2 6 10 16 13 14 12 8 8 9 6 7 7 32 45 51 47 47 41 45 56 54 54 57 51 51 54 53 51
43 37 29 28 24 15 17 16 15 18 6 5 3 2 3 7 3 5 7 7 1 4 6 9 12 3 9 18 31 34 33 36 40 50 55 58 60 62 58 51 42 39 46 51
47 52 14 11 19 27 18 3 4 7 7 4 5 4 5 5 4 3 4 2 3 3 8 7 5 7 51 62 57 56 53 50 31 29 27 20 24 27 31 36 39 42 50 53
42 12 8 39 40 15 5 5 3 2 1 7 6 11 4 1 3 3 2 3 1 2 7 5 4 7 21 44 45 38 25 18 19 24 30 34 35 41 45 55 60 59 60 59
20 32 47 34 8 5 5 2 3 4 6 8 8 5 8 3 3 3 2 1 2 9 1 1 6 9 19 19 20 15 19 23 26 26 36 44 46 56 66 73 75 72 73 73
54 20 10 8 4 8 8 10 3 3 9 14 12 4 5 5 3 6 4 2 9 8 2 7 10 16 23 20 22 24 26 32 38 50 53 61 71 78 82 83 82 82 81 80
6 8 7 6 5 6 7 6 7 6 7 17 9 8 3 4 4 3 3 6 2 5 7 11 8 29 25 21 25 33 40 47 57 63 73 83 84 89 80 78 73 69 72 68
6 7 6 6 4 4 3 9 2 4 9 11 9 5 4 3 4 4 2 5 8 9 10 8 20 14 17 27 39 49 60 70 77 80 82 81 83 81 79 73 69 64 64 65
5 5 7 6 7 4 2 2 3 9 13 12 6 6 5 4 5 4 11 6 12 9 7 18 23 39 51 62 74 85 93 87 82 81 78 74 67 68 67 66 67 68 65 58
5 5 4 1 2 1 5 3 3 10 10 5 7 6 13 5 5 7 8 10 9 27 42 54 63 75 86 90 89 83 76 71 68 65 71 69 65 68 68 71 61 52 52 49
Wind_Direction_850mb
288 302 317 328 336 345 343 343 59 308 179 80 50 157 206 288 292 321 297 88 96 130 102 76 98 126 14 350 26 65 34 128 103 237 294 238 66 111 109 113 244 105 152 275
277 293 311 324 336 350 355 343 309 44 179 136 267 282 281 273 327 325 19 116 113 95 107 105 77 77 22 26 57 134 181 38 40 354 356 7 71 52 114 107 84 204 140 261
264 278 297 315 332 346 354 354 14 32 111 89 132 72 334 312 313 157 46 113 87 91 77 20 123 66 10 30 71 56 85 114 158 191 207 154 211 211 110 119 123 217 218 270
249 265 283 303 321 338 352 8 59 54 328 20 44 48 8 343 354 1 31 47 47 139 110 56 86 58 16 38 15 41 83 196 191 260 225 194 214 226 197 193 211 184 251 205
245 251 262 284 306 330 341 5 52 57 47 344 350 357 43 61 326 16 339 114 81 41 142 177 193 139 170 225 12 66 17 228 108 303 258 231 255 268 254 225 243 242 259 273
239 242 247 257 278 315 284 152 84 24 3 13 94 297 339 65 335 85 17 143 98 84 168 119 106 105 127 119 142 124 99 132 108 248 356 330 295 231 228 219 191 192 231 240
233 234 234 235 241 251 229 181 180 150 256 82 142 11 340 348 333 255 46 43 64 105 135 120 104 114 274 267 250 181 145 130 138 214 17 248 248 297 204 207 215 222 266 266
227 228 227 224 223 222 208 179 172 145 144 185 283 308 306 320 355 34 47 48 93 139 131 57 32 348 9 273 129 238 180 130 176 179 204 295 311 262 193 185 248 211 236 177
220 221 221 216 213 213 209 197 151 148 125 237 209 240 326 237 346 358 67 78 116 105 75 74 156 217 224 288 336 56 82 94 128 133 210 236 242 311 5 105 277 209 191 169
216 215 215 213 210 211 210 209 203 182 203 202 179 191 187 154 117 157 314 337 131 117 96 119 165 226 207 226 205 192 81 51 187 175 239 285 251 303 318 163 248 170 177 171
214 211 209 208 206 209 211 214 219 219 225 232 225 216 211 185 188 145 199 53 310 58 112 154 204 181 223 197 233 192 185 167 209 114 215 275 344 3 210 239 40 210 190 205
210 208 205 203 202 203 208 215 217 233 241 253 244 250 242 253 258 288 220 208 187 176 98 189 107 178 68 163 234 38 237 192 193 178 218 271 325 253 118 62 141 171 221 225
204 203 200 198 198 201 207 218 224 236 267 279 271 262 243 245 236 223 230 222 211 187 156 146 145 229 135 185 234 211 251 180 213 34 219 196 145 127 130 113 11 284 236 233
195 195 194 188 185 189 217 236 236 223 229 275 265 205 187 261 240 226 217 223 207 169 160 138 138 197 191 223 256 188 201 156 208 258 274 248 208 204 210 254 296 304 303 286
181 189 185 184 193 229 238 220 220 211 212 219 296 305 278 242 249 234 209 215 221 194 154 117 221 224 192 206 87 239 205 199 221 259 242 268 275 273 249 291 303 299 287 274
209 193 193 207 258 262 208 194 211 199 200 297 319 301 315 237 224 198 191 204 201 183 171 196 237 240 216 197 222 252 244 249 258 271 285 285 276 268 280 293 295 295 288 280
183 192 213 227 208 181 171 189 185 174 156 209 300 311 235 315 183 187 187 196 199 197 186 202 226 235 203 159 217 246 259 269 276 278 282 279 282 289 302 300 298 300 297 288
178 190 184 173 163 154 139 148 141 162 168 193 176 276 336 33 177 164 186 188 193 209 209 192 206 206 215 245 239 250 257 261 264 271 281 285 288 285 286 287 286 289 287 284
169 157 139 111 142 149 142 121 151 175 157 166 158 201 228 5 86 134 151 180 141 219 210 233 164 204 226 229 233 239 255 257 276 290 288 287 286 288 288 286 281 278 278 280
152 124 106 128 146 134 127 130 159 163 191 213 208 216 267 354 53 90 139 147 199 223 241 171 185 248 253 260 265 274 279 287 290 277 297 310 302 304 301 295 292 284 282 283
122 131 114 133 131 121 143 120 132 160 303 215 225 218 238 220 100 187 66 172 198 303 269 184 246 266 256 285 272 272 273 253 260 278 286 299 299 301 300 299 296 290 286 278
133 123 126 124 146 120 117 132 131 187 219 202 190 225 212 168 177 129 24 179 49 250 60 182 266 253 282 284 264 246 249 260 268 282 295 296 292 299 298 295 291 289 290 288
123 118 124 148 133 71 186 172 222 217 200 187 183 164 163 152 189 82 98 220 237 324 209 234 236 269 281 250 245 260 274 280 288 294 293 297 296 296 296 292 287 286 282 279
104 124 98 150 178 224 193 179 186 180 174 169 151 129 163 144 96 116 217 244 10 262 236 236 246 266 266 246 266 277 283 285 288 290 295 298 297 297 295 290 295 293 284 281
100 111 122 174 177 175 123 229 233 128 156 145 124 103 178 51 105 202 325 264 246 226 230 234 265 270 270 280 289 293 295 297 298 299 298 295 295 295 295 297 295 294 290 287
77 83 98 126 97 74 131 306 280 158 153 145 120 100 61 260 186 158 223 228 227 239 222 267 295 296 300 302 305 307 307 302 297 297 298 299 299 298 299 297 293 287 286 283
62 63 85 165 103 137 33 307 346 188 182 156 132 169 215 128 228 227 210 221 233 267 283 292 298 304 306 308 309 308 306 303 301 301 302 302 304 302 296 292 303 302 297 292